Terminal Aerodrome Forecast
Issued by NWS

Home | Current Version | Previous Version | Text Only | Print | Product List | Glossary On
Versions: 1 2 3 4 5 6 7 8 9 10 11 12 13 14 15 16 17 18 19 20 21 22 23 24 25 26 27 28 29 30 31 32 33 34 35 36 37 38 39 40 41 42 43 44 45 46 47 48 49 50
000
FTUS46 KEKA 312347
TAFACV
TAF
KACV 312347Z 0100/0124 26005KT P6SM SCT005 BKN150
     FM010100 25005KT 6SM BR OVC004
     FM010300 18003KT 3SM BR OVC002
     FM011000 VRB02KT 1/2SM FG VV002
     FM011800 29006KT 5SM BR OVC003
     FM012100 26006KT P6SM SCT004 BKN007 OVC150=

USA.gov is the U.S. government's official web portal to all federal, state and local government web resources and services.